EW2112 Weather Reports


Display with metric or nautical units.
time (UTC)temp
F
wind
direction
speed
MPH
gust
MPH
rain 1hr
in
rain 24hr
in
rain mn
in
humidity
%
barometer
mb
20260901143004 66 9 3.0 9.0 0.00 0.01 0.00 54 1013.9
20260901141502 65 37 4.0 8.0 0.00 0.01 0.00 54 1013.7
20260901140101 65 360 4.0 11.0 0.00 0.01 0.00 54 1013.9
20260901134611 65 15 4.0 7.0 0.00 0.01 0.01 54 1014.0
20260901133101 66 5 3.0 8.0 0.00 0.01 0.01 52 1014.2
20260901131603 67 338 4.0 9.0 0.00 0.01 0.01 51 1014.2
20260901130056 67 335 4.0 11.0 0.00 0.01 0.01 51 1014.3
20260901124555 67 348 3.0 11.0 0.00 0.01 0.01 50 1014.3
20260901123057 67 322 3.0 8.0 0.00 0.01 0.01 50 1014.4
20260901121552 66 9 3.0 8.0 0.00 0.01 0.01 51 1014.5
20260901120052 65 14 1.0 4.0 0.00 0.01 0.01 52 1014.6
20260901114549 66 5 4.0 6.0 0.00 0.01 0.01 50 1014.8
20260901113050 65 355 3.0 10.0 0.00 0.01 0.01 51 1015.2
20260901111552 64 15 2.0 4.0 0.00 0.01 0.01 53 1015.6
20260901110051 65 339 1.0 3.0 0.00 0.01 0.01 51 1015.8
20260901104549 64 351 2.0 6.0 0.00 0.01 0.01 52 1015.7
20260901103049 63 348 1.0 3.0 0.00 0.01 0.01 57 1015.7
20260901101547 64 289 0.0 2.0 0.00 0.01 0.01 55 1015.7
20260901100046 65 288 0.0 2.0 0.00 0.01 0.01 54 1015.7
20260901094546 66 282 0.0 0.0 0.00 0.01 0.01 52 1015.8
20260901093045 68 282 0.0 2.0 0.00 0.01 0.01 48 1015.8
20260901091545 69 282 0.0 1.0 0.00 0.01 0.01 45 1015.7
20260901090044 70 281 0.0 1.0 0.00 0.01 0.01 43 1015.6
20260901084546 71 281 0.0 4.0 0.00 0.01 0.01 42 1015.5
20260901083042 72 271 1.0 6.0 0.00 0.01 0.01 41 1015.4
20260901081546 72 268 0.0 7.0 0.00 0.01 0.01 39 1015.3
20260901080041 73 264 2.0 6.0 0.00 0.01 0.01 37 1015.3
20260901074541 74 298 0.0 7.0 0.00 0.01 0.01 36 1015.1
20260901073040 75 275 4.0 11.0 0.00 0.01 0.01 35 1015.0
20260901071550 76 252 3.0 15.0 0.00 0.01 0.01 33 1014.9
20260901070039 77 280 4.0 12.0 0.00 0.01 0.01 33 1014.8
20260901064541 78 298 6.0 14.0 0.00 0.01 0.01 32 1014.8
20260901063038 79 278 4.0 14.0 0.00 0.01 0.01 31 1014.7
20260901061536 79 251 5.0 14.0 0.00 0.01 0.01 31 1014.7
20260901060034 80 268 3.0 12.0 0.00 0.01 0.01 31 1014.8
20260901054532 80 234 4.0 14.0 0.00 0.01 0.01 31 1014.9
20260901053032 80 281 4.0 13.0 0.00 0.01 0.01 28 1014.9
20260901051529 80 311 4.0 15.0 0.00 0.01 0.01 27 1015.1
20260901050027 81 266 5.0 13.0 0.00 0.01 0.01 26 1015.2
20260901044525 81 286 6.0 13.0 0.00 0.01 0.01 25 1015.2
20260901043024 81 281 6.0 11.0 0.00 0.01 0.01 28 1015.3
20260901041521 80 267 2.0 11.0 0.00 0.01 0.01 30 1015.4
20260901040019 81 292 3.0 10.0 0.00 0.01 0.01 29 1015.5
20260901034520 81 299 5.0 12.0 0.00 0.01 0.01 30 1015.8
20260901033015 80 355 3.0 11.0 0.00 0.01 0.01 30 1016.0
20260901031512 80 302 5.0 12.0 0.00 0.01 0.01 32 1016.4
20260901030008 79 286 3.0 10.0 0.00 0.01 0.01 32 1016.7
20260901024505 78 287 3.0 10.0 0.00 0.01 0.01 33 1017.0
20260901023005 77 27 5.0 9.0 0.00 0.01 0.01 36 1017.4
20260901021558 77 272 4.0 10.0 0.00 0.01 0.01 36 1017.8
20260901020057 76 5 2.0 7.0 0.00 0.01 0.01 40 1018.4
20260901014550 75 301 2.0 8.0 0.00 0.01 0.01 43 1018.8
20260901013050 74 15 4.0 9.0 0.00 0.01 0.01 43 1019.2
20260901011542 72 305 2.0 6.0 0.00 0.01 0.01 47 1019.6
20260901010037 71 37 3.0 6.0 0.00 0.01 0.01 50 1020.0
20260901004533 70 283 2.0 6.0 0.00 0.01 0.01 49 1020.5
20260901003030 69 18 2.0 5.0 0.00 0.01 0.01 52 1020.8
20260901001525 67 30 1.0 6.0 0.00 0.01 0.01 56 1021.0
20260901000021 65 31 2.0 6.0 0.00 0.01 0.01 56 1021.4
20260831234516 63 33 1.0 6.0 0.00 0.01 0.01 61 1021.8
20260831233015 62 355 2.0 6.0 0.00 0.01 0.01 64 1022.0
20260831231517 60 342 4.0 8.0 0.00 0.01 0.01 65 1022.2
20260831230003 59 5 1.0 6.0 0.00 0.01 0.01 69 1022.4
20260831224600 57 346 2.0 6.0 0.00 0.01 0.01 73 1022.6
20260831223057 56 336 3.0 6.0 0.00 0.01 0.01 74 1022.8
20260831221554 55 360 2.0 4.0 0.00 0.01 0.01 78 1023.0
20260831220049 53 287 0.0 3.0 0.01 0.01 0.01 85 1023.1
20260831214546 52 288 1.0 4.0 0.01 0.01 0.01 89 1023.1
20260831213042 50 319 0.0 2.0 0.01 0.01 0.01 95 1023.0
20260831211538 48 320 0.0 1.0 0.01 0.01 0.01 95 1023.0
20260831210034 46 320 0.0 0.0 0.00 0.00 0.00 93 1022.9
20260831204536 46 320 0.0 0.0 0.00 0.00 0.00 93 1022.8
20260831203031 46 320 0.0 0.0 0.00 0.00 0.00 92 1022.6
20260831201529 46 320 0.0 0.0 0.00 0.00 0.00 92 1022.5
20260831200033 47 320 0.0 0.0 0.00 0.00 0.00 92 1022.5
20260831194525 47 320 0.0 0.0 0.00 0.00 0.00 92 1022.4
20260831193026 47 320 0.0 0.0 0.00 0.00 0.00 91 1022.4
20260831191528 48 320 0.0 0.0 0.00 0.00 0.00 91 1022.5
20260831190021 48 320 0.0 0.0 0.00 0.00 0.00 91 1022.6
20260831184519 49 320 0.0 0.0 0.00 0.00 0.00 91 1022.6
20260831183017 49 320 0.0 0.0 0.00 0.00 0.00 91 1022.5
20260831181516 49 320 0.0 0.0 0.00 0.00 0.00 90 1022.5
20260831180013 50 320 0.0 1.0 0.00 0.00 0.00 90 1022.6
20260831174511 50 320 0.0 0.0 0.00 0.00 0.00 90 1022.5
20260831173008 51 320 0.0 0.0 0.00 0.00 0.00 88 1022.6
20260831171507 52 320 0.0 0.0 0.00 0.00 0.00 88 1022.8
20260831170008 52 320 0.0 2.0 0.00 0.00 0.00 88 1022.9
20260831164503 53 321 0.0 3.0 0.00 0.00 0.00 89 1023.0
20260831163002 53 321 0.0 4.0 0.00 0.00 0.00 88 1023.2
20260831161502 53 336 0.0 2.0 0.00 0.00 0.00 88 1023.3
20260831160059 52 336 0.0 3.0 0.00 0.00 0.00 89 1023.5
20260831154606 52 63 0.0 0.0 0.00 0.00 0.00 89 1023.5
20260831153054 51 63 0.0 0.0 0.00 0.00 0.00 89 1023.8
20260831151552 51 63 0.0 1.0 0.00 0.00 0.00 89 1024.0
20260831150050 51 63 0.0 0.0 0.00 0.00 0.00 88 1024.2
20260831144548 51 63 0.0 0.0 0.00 0.00 0.00 87 1024.3